Weather History for Eureka, NU

Change the Weather History Date:

Wednesday, October 3, 2012

  Actual Average Record
Temperature  
Mean Temperature 16 °F -  
Max Temperature 18 °F -3 °F 26 °F (2008)
Min Temperature 13 °F -17 °F -16 °F (2004)
Degree Days  
Heating Degree Days 50    
Moisture  
Dew Point 11 °F    
Average Humidity 77    
Maximum Humidity 86    
Minimum Humidity 61    
Precipitation  
Precipitation 0.00 in 0.01 in - ()
Sea Level Pressure  
Sea Level Pressure 29.91 in    
Wind  
Wind Speed 13 mph ()    
Max Wind Speed 24 mph    
Max Gust Speed 31 mph    
Visibility 14.5 miles    
Events Snow    
Averages and records for this station are not official NWS values.
T = Trace of Precipitation, MM = Missing Value Source: Averaged Metar Reports

Daily Weather History Graph

Daily Weather History Graph

Search for Another Location

Airport:

Trip Planner

Search our weather history database for the weather conditions in past years. The results will help you decide how hot, cold, wet, or windy it might be!

Date:

Astronomy

Oct. 03, 2012 Rise Set
Actual Time 7:51 AM CDT 5:10 PM CDT
Civil Twilight 5:49 AM CDT 7:10 PM CDT
Nautical Twilight 3:05 AM CDT 9:49 PM CDT
Astronomical Twilight Sun does not rise Sun does not rise
Moon No Moon Rise No Moon Set
Length of Visible Light 13h 20m
Length of Day
9h 19m
Waning Gibbous, 88% of the Moon is Illuminated
Oct 3
Waning Gibbous
Oct 8
Last Quarter
Oct 15
New
Oct 21
First Quarter
Oct 29
Full

Hourly Weather History & Observations

Time (CDT) Temp. Windchill Dew Point Humidity Pressure Visibility Wind Dir Wind Speed Gust Speed Precip Events Conditions
1:00 AM 17 °F - 13 °F 80% 29.99 in 15 mi North 16.1 mph - -   Partly Cloudy
1:00 AM 17.6 °F 2.7 °F 14.0 °F 86% 29.99 in 15.0 mi North 16.1 mph - N/A   Mostly Cloudy
2:00 AM 15.8 °F 1.4 °F 12.2 °F 86% 29.97 in 15.0 mi North 13.8 mph - N/A   Scattered Clouds
3:00 AM 17.6 °F 3.7 °F 12.2 °F 79% 29.96 in 15.0 mi North 13.8 mph - N/A   Mostly Cloudy
4:00 AM 15.8 °F 1.4 °F 12.2 °F 86% 29.95 in 15.0 mi North 13.8 mph - N/A   Mostly Cloudy
5:00 AM 15.8 °F 5.1 °F 10.4 °F 79% 29.94 in 15.0 mi NNE 8.1 mph - N/A   Mostly Cloudy
5:50 AM - - - N/A% - 15.0 mi North 10.4 mph - N/A   Partly Cloudy
7:00 AM 16 °F - 11 °F 75% 29.93 in 15 mi NNW 17.3 mph - -   Scattered Clouds
7:00 AM 15.8 °F -0.2 °F 12.2 °F 86% 29.93 in 15.0 mi NNW 17.3 mph - N/A   Scattered Clouds
8:00 AM 15.8 °F 0.3 °F 12.2 °F 86% 29.92 in 15.0 mi NNW 16.1 mph - N/A   Partly Cloudy
9:10 AM - - - N/A% - 6.0 mi NW 8.1 mph - N/A   Scattered Clouds
10:00 AM 15.8 °F 8.6 °F 12.2 °F 86% 29.91 in 10.0 mi WNW 4.6 mph - N/A Snow Light Snow
11:00 AM 15.8 °F 7.2 °F 12.2 °F 86% 29.89 in 15.0 mi NW 5.8 mph - N/A Snow Light Snow
11:37 AM - - - N/A% - 15.0 mi NNW 10.4 mph - N/A   Scattered Clouds
12:00 PM 15.8 °F 4.2 °F 10.4 °F 79% 29.88 in 15.0 mi North 9.2 mph - N/A   Scattered Clouds
1:00 PM 17 °F - 10 °F 61% 29.88 in 15 mi North 16.1 mph - -   Partly Cloudy
1:00 PM 17.6 °F 3.2 °F 10.4 °F 73% 29.88 in 15.0 mi North 15.0 mph 20.7 mph N/A   Scattered Clouds
2:00 PM 17.6 °F 2.7 °F 10.4 °F 73% 29.88 in 15.0 mi North 16.1 mph 23.0 mph N/A   Mostly Cloudy
3:00 PM 17.6 °F 0.9 °F 10.4 °F 73% 29.87 in 15.0 mi North 20.7 mph - N/A   Mostly Cloudy
4:00 PM 17.6 °F -0.3 °F 10.4 °F 73% 29.87 in 15.0 mi North 24.2 mph 31.1 mph N/A   Mostly Cloudy
5:00 PM 17.6 °F 1.7 °F 10.4 °F 73% 29.87 in 15.0 mi North 18.4 mph 25.3 mph N/A   Mostly Cloudy
6:00 PM 17.6 °F 0.9 °F 10.4 °F 73% 29.87 in 15.0 mi North 20.7 mph - N/A   Mostly Cloudy
7:00 PM 17 °F - 10 °F 65% 29.87 in 15 mi North 17.3 mph - -   Partly Cloudy
7:00 PM 17.6 °F 1.7 °F 10.4 °F 73% 29.87 in 15.0 mi North 18.4 mph 24.2 mph N/A   Scattered Clouds
8:00 PM 17.6 °F 1.3 °F 8.6 °F 68% 29.88 in 15.0 mi North 19.6 mph - N/A   Scattered Clouds
9:00 PM 17.6 °F 3.7 °F 10.4 °F 73% 29.89 in 15.0 mi North 13.8 mph 19.6 mph N/A   Mostly Cloudy
10:00 PM 17.6 °F 1.3 °F 10.4 °F 73% 29.88 in 15.0 mi North 19.6 mph - N/A   Mostly Cloudy